Temp
93 88 85 90 91 91 88 85 83 85 89 87 84 81 83 86 85 82 82 80 78 79 82 83 83 83 83 83 81 80 80 79 82 83 83 82 81 83 85 86 85 83 83 81
90 84 92 92 91 89 87 83 82 84 87 87 83 80 83 85 84 83 82 81 80 80 80 80 82 82 82 81 81 80 79 79 79 82 81 81 81 83 84 85 81 83 81 80
86 89 92 89 87 85 86 83 81 81 84 87 84 72 65 84 84 83 83 83 83 82 79 80 80 81 82 81 80 80 79 78 79 78 81 79 81 81 81 80 82 79 80 81
89 93 89 87 85 87 81 88 85 82 79 68 82 68 64 78 77 80 78 81 82 81 82 83 81 80 82 83 81 80 80 79 80 79 77 74 75 74 77 78 79 78 80 80
86 87 86 85 85 88 82 88 86 84 81 80 81 74 71 67 68 76 77 80 82 83 83 81 83 83 85 84 82 79 79 79 78 77 75 75 73 74 76 76 73 74 75 77
90 95 92 90 89 89 90 85 85 84 82 71 62 76 59 56 68 76 74 79 80 81 80 82 83 83 82 85 84 82 81 79 77 77 76 73 70 68 70 70 71 71 71 70
85 88 92 92 86 90 88 81 71 67 67 65 75 76 72 78 82 81 75 71 78 81 78 80 81 84 81 79 80 82 80 78 77 76 73 69 69 68 67 65 65 62 62 62
78 74 87 91 88 84 83 82 72 60 65 71 79 68 67 81 84 86 84 79 80 78 81 81 81 81 81 80 81 83 80 78 76 70 69 69 69 64 64 61 60 57 55 55
79 77 89 89 91 90 82 78 85 73 77 71 69 73 79 82 81 82 82 79 78 81 81 81 82 82 79 82 81 81 78 74 69 71 70 69 64 61 60 58 58 58 54 53
84 74 86 88 91 91 85 88 74 77 62 60 73 67 63 71 75 78 79 78 79 80 82 82 83 82 83 82 81 76 75 68 72 72 71 67 65 62 61 59 56 57 55 52
87 80 80 85 83 81 83 81 79 77 74 64 62 62 74 72 74 75 78 79 80 80 82 82 83 83 82 77 77 75 68 72 70 68 66 64 64 63 60 61 58 59 59 53
84 81 76 77 84 88 84 79 78 69 66 72 69 61 76 76 78 77 78 79 80 80 82 82 82 76 74 75 70 70 68 68 68 66 64 62 60 57 54 57 57 58 57 57
83 78 70 72 79 82 78 79 79 75 73 66 64 60 77 77 76 78 76 78 79 79 80 80 74 73 67 71 67 67 65 68 65 65 63 57 54 53 56 57 57 58 56 54
77 77 72 68 70 78 71 75 77 74 68 69 67 68 72 74 73 75 76 77 77 77 76 74 71 67 70 69 66 66 64 64 62 64 61 58 57 57 58 57 57 55 54 53
81 71 76 76 78 78 75 73 74 71 72 66 68 68 69 71 72 74 76 74 73 73 72 69 65 65 70 67 66 65 63 60 64 62 60 57 58 58 58 57 54 54 53 53
80 71 75 72 76 76 71 73 73 73 73 72 71 67 75 76 76 74 73 71 70 70 68 66 67 67 67 63 64 62 58 57 61 62 59 55 52 57 57 53 54 53 53 53
76 74 71 66 74 73 66 70 71 73 74 72 66 69 74 72 71 72 70 69 67 65 63 62 65 65 65 64 63 60 55 62 61 61 56 52 53 57 54 56 55 53 53 53
74 72 74 68 69 57 69 77 75 71 72 74 72 72 73 72 73 72 71 66 63 62 63 64 66 64 65 62 63 58 63 61 61 58 58 58 57 54 57 54 54 53 54 53
81 76 71 65 66 67 69 72 72 69 67 72 70 71 72 73 74 65 67 66 63 62 63 66 67 65 62 62 60 64 62 60 60 56 56 56 56 56 54 53 51 52 52 52
78 76 73 70 63 58 69 74 78 76 61 71 71 69 69 71 65 64 65 65 64 62 65 66 61 63 63 63 65 62 60 60 57 56 57 56 59 55 53 52 51 53 52 51
71 73 69 67 68 66 73 75 78 60 59 70 70 69 67 64 64 64 64 64 63 64 65 62 61 64 65 65 63 61 61 56 58 58 57 58 58 58 57 55 55 54 53 51
69 69 70 71 65 57 75 75 66 67 71 71 70 68 67 67 65 62 62 60 62 65 67 68 66 66 66 63 64 60 57 59 58 57 57 57 57 59 55 56 56 56 53 50
67 70 71 66 65 70 74 71 74 75 71 70 69 68 68 64 61 62 60 62 65 68 68 68 68 65 64 65 64 61 58 60 56 56 56 57 58 58 60 57 56 56 52 49
74 78 73 69 70 71 72 74 75 74 71 71 70 69 68 63 62 61 63 64 66 68 68 69 68 64 62 64 65 62 61 59 59 55 57 58 59 58 59 58 58 57 54 51
78 78 72 69 72 72 73 74 73 72 72 71 70 69 69 66 64 64 61 65 65 67 70 69 65 64 63 66 63 64 62 60 58 56 58 58 58 59 58 60 59 58 55 47
81 74 74 72 73 74 71 74 74 71 69 70 69 67 69 67 67 67 62 64 67 68 69 65 65 65 64 65 62 62 63 59 56 56 60 59 57 60 57 57 59 44 46 43
MSLP
1002.97 1002.03 1000.57 999.93 1000.03 999.91 999.69 999.73 1000.06 1001.38 1002.08 1002.21 1002.77 1005.00 1006.29 1007.19 1008.18 1009.37 1010.38 1011.56 1012.58 1013.01 1013.50 1013.85 1014.14 1014.32 1014.32 1014.36 1014.60 1014.77 1014.62 1014.59 1013.98 1013.17 1012.64 1012.29 1011.70 1011.16 1010.66 1010.53 1010.38 1010.58 1010.19 1010.10
1001.74 1000.81 1000.32 1000.81 1000.78 1000.41 1000.05 1000.00 1000.77 1002.15 1002.95 1002.92 1003.50 1004.69 1006.59 1007.64 1008.29 1009.20 1010.10 1011.13 1012.11 1012.84 1013.39 1013.93 1014.05 1014.43 1014.56 1014.62 1014.88 1015.11 1015.05 1014.89 1014.57 1013.89 1013.35 1013.24 1012.57 1011.80 1011.28 1010.85 1010.66 1010.02 1010.13 1009.90
1000.21 1000.33 1001.28 1001.05 1000.79 1000.45 1000.15 1000.08 1001.21 1001.45 1002.57 1002.73 1003.00 1004.55 1007.37 1007.33 1008.76 1009.56 1010.24 1010.93 1011.56 1012.24 1013.02 1013.53 1014.01 1014.34 1014.45 1014.50 1014.87 1015.15 1015.32 1015.13 1014.83 1014.67 1013.86 1013.86 1013.11 1012.44 1011.88 1011.60 1010.79 1010.77 1010.42 1009.83
1000.16 1001.16 1001.30 1000.90 1000.59 1000.80 1000.17 1000.96 1001.43 1001.82 1002.25 1002.24 1004.08 1004.96 1006.86 1006.52 1007.97 1008.98 1010.24 1011.03 1011.51 1012.38 1012.82 1012.95 1013.42 1013.96 1014.20 1014.07 1014.61 1014.92 1015.17 1015.14 1014.82 1014.78 1014.41 1014.38 1013.68 1013.24 1012.96 1012.01 1011.62 1011.49 1010.47 1009.76
1000.37 1001.16 1001.11 1000.68 1001.08 1001.31 1001.34 1001.45 1001.63 1001.74 1001.88 1001.93 1002.38 1004.06 1006.60 1008.35 1008.14 1009.34 1010.14 1010.56 1011.15 1012.09 1012.34 1012.91 1013.23 1013.44 1013.58 1013.80 1013.99 1014.41 1014.83 1014.94 1014.93 1014.83 1014.77 1014.49 1014.15 1013.84 1013.11 1012.73 1012.29 1011.35 1010.78 1010.34
1000.77 1001.35 1001.03 1000.82 1001.73 1001.70 1001.80 1001.81 1001.67 1001.67 1001.44 1001.67 1004.25 1004.21 1007.99 1009.00 1009.08 1009.54 1010.70 1010.91 1011.03 1011.88 1012.72 1012.85 1013.11 1013.27 1013.71 1013.77 1013.87 1013.92 1014.10 1014.28 1014.64 1014.50 1014.57 1014.64 1014.60 1014.51 1013.81 1013.24 1012.55 1012.24 1011.89 1011.39
1001.11 1001.15 1001.36 1001.66 1001.32 1001.59 1001.57 1001.38 1000.73 1001.14 1000.97 1001.27 1003.52 1003.65 1005.92 1007.42 1007.93 1008.64 1010.30 1011.44 1011.68 1012.14 1012.78 1013.04 1013.17 1013.38 1014.20 1014.52 1014.29 1014.07 1014.04 1014.23 1014.55 1014.82 1015.17 1015.21 1015.39 1014.91 1014.56 1014.49 1014.20 1013.92 1013.53 1012.99
1000.39 1000.87 1001.26 1001.60 1001.19 1000.80 1001.24 1001.48 1001.16 1000.94 1000.68 1001.09 1002.68 1004.23 1006.48 1007.42 1008.04 1008.75 1009.82 1011.40 1012.10 1012.89 1012.93 1013.31 1014.06 1014.44 1014.46 1014.31 1014.06 1013.99 1014.28 1014.44 1014.80 1015.54 1015.65 1015.75 1015.90 1016.16 1016.01 1016.07 1015.83 1015.62 1015.22 1014.52
1000.27 1000.67 1001.71 1001.99 1001.95 1001.93 1001.53 1001.37 1002.46 1002.68 1002.03 1002.23 1003.58 1005.72 1006.86 1007.78 1008.68 1009.37 1009.96 1011.52 1012.39 1012.90 1013.50 1013.99 1014.14 1014.28 1014.30 1014.19 1014.44 1014.32 1014.75 1015.67 1016.01 1015.56 1015.61 1016.07 1016.47 1016.65 1016.59 1016.60 1016.39 1016.02 1015.91 1015.15
1001.30 1001.38 1001.83 1002.25 1002.48 1002.27 1002.32 1002.62 1002.50 1002.49 1002.61 1002.95 1003.05 1005.74 1008.09 1008.90 1009.53 1010.19 1010.71 1011.71 1012.72 1013.47 1013.33 1013.55 1013.59 1013.73 1014.02 1014.47 1014.58 1015.49 1016.10 1016.02 1015.87 1016.07 1016.32 1016.76 1016.74 1017.15 1017.23 1016.93 1016.66 1016.20 1016.05 1015.58
1002.21 1002.53 1002.13 1002.54 1002.15 1001.98 1002.29 1002.24 1003.32 1004.09 1004.22 1004.45 1004.82 1007.88 1009.75 1010.38 1010.93 1011.18 1011.48 1012.35 1013.08 1013.54 1013.48 1013.73 1013.69 1014.01 1014.52 1015.74 1016.18 1016.25 1016.68 1016.57 1016.75 1017.33 1017.61 1017.65 1017.64 1017.59 1017.60 1016.95 1016.74 1016.14 1015.77 1015.76
1003.99 1003.40 1002.39 1002.87 1003.62 1003.63 1003.90 1004.05 1004.46 1004.67 1004.75 1005.18 1006.38 1009.36 1010.90 1011.29 1011.69 1012.21 1012.44 1013.08 1013.67 1013.96 1014.01 1014.08 1014.35 1015.50 1016.47 1016.89 1016.91 1017.39 1017.91 1018.05 1018.15 1018.47 1018.15 1018.44 1018.63 1018.69 1018.60 1017.82 1017.24 1016.77 1016.17 1015.84
1004.87 1004.26 1003.66 1003.71 1004.16 1004.49 1004.52 1005.30 1005.80 1006.18 1006.54 1006.08 1007.12 1009.59 1011.17 1011.81 1012.20 1012.63 1013.18 1013.70 1014.09 1014.48 1014.56 1014.88 1016.35 1016.98 1017.45 1017.93 1018.12 1018.26 1018.91 1018.84 1019.21 1018.79 1018.72 1019.40 1019.47 1019.40 1018.62 1018.05 1017.62 1017.08 1016.77 1016.66
1005.95 1005.46 1004.98 1004.40 1004.63 1004.58 1005.63 1006.13 1006.49 1006.55 1006.70 1006.80 1008.15 1009.49 1010.69 1011.83 1012.74 1013.34 1013.86 1014.33 1014.80 1015.29 1015.60 1016.38 1017.38 1018.15 1018.23 1018.47 1018.77 1019.16 1019.62 1019.90 1019.60 1018.90 1019.00 1019.49 1019.46 1019.19 1018.72 1018.35 1017.91 1017.83 1017.59 1017.20
1006.20 1005.90 1005.76 1005.68 1005.79 1005.91 1006.54 1007.08 1007.42 1007.68 1008.23 1008.43 1009.56 1010.38 1012.20 1013.19 1013.86 1014.27 1014.74 1015.33 1016.02 1016.45 1016.97 1018.06 1018.72 1018.71 1018.68 1018.91 1019.47 1019.90 1020.30 1020.53 1019.71 1019.38 1019.45 1019.82 1019.60 1019.42 1019.04 1018.58 1018.60 1018.46 1018.24 1017.76
1006.77 1006.55 1006.55 1006.57 1006.80 1007.11 1007.59 1008.22 1008.65 1008.99 1009.19 1009.55 1010.31 1011.65 1013.11 1013.78 1014.49 1015.00 1015.62 1016.60 1017.17 1017.65 1018.47 1019.10 1019.29 1019.29 1019.30 1019.97 1020.23 1020.80 1021.10 1020.80 1020.46 1019.85 1020.21 1020.73 1020.74 1020.10 1019.54 1019.37 1019.12 1018.80 1018.62 1018.11
1006.84 1006.87 1006.87 1006.92 1007.39 1007.78 1008.30 1009.15 1009.54 1009.87 1010.63 1010.95 1011.36 1013.02 1013.80 1014.39 1015.20 1015.59 1016.74 1017.74 1018.53 1019.34 1019.92 1019.95 1019.84 1020.10 1020.13 1020.66 1021.09 1021.57 1021.50 1020.87 1020.48 1020.55 1021.19 1021.58 1021.17 1020.12 1020.08 1019.61 1019.35 1019.10 1018.72 1018.30
1007.02 1007.34 1007.07 1007.07 1008.06 1008.19 1009.58 1010.25 1010.74 1011.00 1011.86 1012.57 1013.20 1013.98 1014.67 1015.28 1015.79 1016.97 1018.32 1019.34 1020.16 1020.65 1020.74 1020.68 1020.60 1020.71 1020.79 1021.50 1021.73 1022.05 1021.54 1021.13 1020.96 1021.20 1021.54 1021.33 1021.06 1020.85 1020.31 1020.15 1019.68 1019.50 1019.04 1018.59
1007.21 1007.18 1007.01 1007.54 1007.74 1009.45 1010.19 1010.75 1011.07 1011.48 1012.64 1013.97 1014.51 1015.01 1015.60 1016.19 1016.06 1018.46 1019.79 1020.40 1020.99 1021.42 1021.53 1021.14 1021.12 1021.18 1021.72 1021.96 1022.29 1021.67 1021.55 1021.64 1021.65 1022.02 1022.15 1021.90 1021.63 1021.18 1021.10 1020.84 1020.58 1020.19 1019.65 1019.16
1007.73 1008.02 1007.48 1007.35 1007.58 1008.67 1010.07 1011.45 1012.23 1012.58 1013.19 1015.06 1015.59 1016.12 1016.61 1016.75 1016.45 1018.38 1020.52 1021.23 1021.70 1021.86 1021.70 1021.40 1021.90 1021.90 1021.99 1022.13 1021.94 1021.90 1022.06 1022.27 1022.36 1022.52 1022.52 1022.45 1021.77 1021.73 1021.63 1021.48 1021.15 1020.73 1020.32 1019.92
1007.52 1007.34 1007.30 1007.69 1008.23 1010.32 1011.55 1012.31 1012.71 1013.10 1015.40 1015.95 1016.73 1017.32 1017.79 1018.23 1019.45 1020.70 1021.60 1021.81 1022.04 1021.86 1021.67 1022.06 1022.14 1021.76 1021.89 1021.92 1022.03 1022.20 1022.58 1022.92 1022.98 1023.00 1022.98 1022.76 1022.35 1021.88 1021.73 1021.53 1021.21 1020.75 1020.32 1020.10
1007.45 1007.52 1007.83 1008.67 1009.39 1011.38 1012.59 1012.84 1013.44 1015.27 1016.12 1016.74 1017.42 1018.31 1018.66 1019.35 1020.46 1021.58 1022.06 1022.26 1021.99 1021.40 1021.27 1021.36 1021.57 1021.65 1021.92 1022.18 1022.09 1022.59 1023.21 1023.42 1023.50 1023.57 1023.39 1023.05 1022.78 1022.28 1022.32 1021.82 1021.40 1021.09 1020.91 1020.65
1008.33 1008.95 1008.76 1010.74 1011.53 1013.20 1013.78 1014.40 1015.30 1015.86 1016.63 1017.63 1018.25 1019.08 1019.43 1020.35 1021.41 1021.89 1022.24 1022.12 1021.60 1021.22 1021.40 1021.67 1021.44 1021.80 1022.18 1022.25 1022.40 1022.91 1023.61 1023.65 1023.82 1023.90 1023.73 1023.25 1022.96 1022.63 1022.24 1022.04 1021.90 1021.66 1021.72 1021.48
1009.15 1009.48 1009.80 1011.22 1012.96 1013.72 1014.71 1015.50 1016.15 1016.86 1017.62 1018.36 1018.97 1019.54 1020.10 1020.94 1021.65 1022.08 1022.01 1021.81 1021.38 1021.50 1021.52 1021.62 1021.48 1021.95 1022.29 1022.49 1022.71 1023.35 1023.72 1024.03 1023.86 1024.09 1023.77 1023.34 1022.86 1022.68 1022.45 1022.29 1022.10 1022.26 1022.44 1022.31
1008.62 1009.60 1010.46 1011.76 1013.00 1014.20 1015.13 1015.94 1016.90 1017.63 1018.21 1018.94 1019.59 1019.87 1020.22 1021.10 1021.62 1022.05 1022.26 1021.85 1021.78 1021.60 1021.50 1021.53 1022.07 1022.13 1022.33 1022.60 1023.09 1023.38 1023.79 1024.16 1024.06 1024.10 1023.71 1023.34 1023.14 1022.87 1022.72 1022.77 1023.04 1022.95 1023.44 1023.51
1009.15 1009.72 1010.20 1010.20 1012.63 1013.32 1014.87 1016.33 1017.27 1017.89 1018.67 1019.16 1019.78 1020.44 1020.74 1021.30 1021.44 1021.99 1022.47 1022.17 1021.81 1021.73 1021.67 1022.15 1022.33 1022.31 1022.51 1022.74 1023.27 1023.68 1023.89 1024.35 1024.49 1024.19 1023.43 1023.55 1023.38 1022.77 1023.12 1023.01 1023.06 1023.65 1023.59 1023.50
Wind_Speed
16 15 16 13 3 11 7 4 5 9 3 8 11 11 11 11 14 14 14 13 12 11 11 9 9 9 9 11 12 12 12 12 11 9 10 11 11 11 10 8 9 12 11 12
10 16 9 2 4 7 7 2 10 7 5 11 11 13 11 12 12 14 13 12 12 10 8 7 7 6 7 9 9 10 11 9 10 10 8 9 10 11 11 10 11 9 11 13
13 14 5 6 6 7 3 4 7 9 7 13 12 12 3 15 12 12 10 9 9 8 7 6 4 5 7 5 7 8 8 10 8 10 9 9 9 11 11 12 12 14 16 14
2 9 9 8 5 9 9 3 1 4 12 3 17 4 27 18 18 13 13 8 7 6 4 3 4 4 3 4 7 4 7 9 10 11 10 12 11 13 10 12 13 14 15 13
11 11 10 8 11 6 8 3 6 8 11 15 11 9 12 14 7 11 10 8 6 3 2 6 4 4 5 5 6 6 5 8 9 12 12 12 13 12 12 13 15 14 14 16
9 1 5 13 2 4 3 6 9 9 14 12 20 8 17 16 19 11 4 7 4 3 7 1 2 7 11 12 11 9 7 9 7 11 13 14 16 17 15 16 15 15 15 14
7 13 7 6 10 8 10 9 10 10 8 3 14 7 13 14 11 11 12 7 7 1 9 7 11 14 12 11 10 12 13 13 14 16 14 14 18 16 17 18 15 17 14 13
10 9 12 5 9 8 4 9 8 9 10 7 10 10 6 12 12 11 11 11 9 9 6 14 15 10 13 11 15 14 14 14 17 13 14 15 18 11 11 12 12 11 11 12
5 9 6 1 4 8 3 5 9 8 16 10 13 11 14 10 10 7 10 12 7 9 10 10 11 11 10 17 18 15 19 23 13 16 14 17 12 12 12 12 10 10 10 11
4 4 5 9 6 8 8 8 7 6 7 6 6 20 9 10 10 8 8 8 10 8 8 12 11 15 16 17 15 22 21 9 20 20 17 15 15 14 14 12 12 14 12 13
3 6 10 7 7 10 3 5 1 4 5 8 10 10 10 9 8 7 7 11 10 12 14 13 15 16 17 23 22 15 9 19 18 17 15 13 14 14 15 13 12 14 12 10
5 6 3 11 6 6 4 9 7 7 6 7 6 9 7 8 8 9 11 12 12 11 14 16 17 22 19 17 8 15 17 15 15 14 13 14 13 14 12 13 13 13 13 13
3 1 6 7 9 5 3 4 2 3 7 1 7 8 6 6 5 5 8 10 10 14 15 15 17 15 12 14 15 14 13 13 13 10 11 11 10 10 11 13 12 12 13 12
3 2 8 9 7 10 5 3 4 4 6 10 10 9 9 11 12 12 11 12 13 14 15 17 16 15 13 14 12 14 11 13 11 11 11 10 11 12 13 11 11 13 13 12
1 1 1 3 5 8 7 6 7 8 8 8 9 8 10 9 9 11 12 13 14 15 18 14 10 9 15 14 13 13 12 9 12 11 13 11 13 12 13 13 12 12 11 10
2 5 5 7 6 9 9 7 5 6 10 6 1 14 8 8 10 12 11 11 13 16 14 17 12 12 16 14 13 10 9 9 11 14 15 14 11 14 12 10 12 9 10 11
6 8 8 6 7 10 9 7 5 6 9 9 10 9 9 10 11 9 11 14 15 14 14 13 14 13 12 11 11 8 6 9 10 14 13 10 9 11 12 12 13 11 11 10
6 9 6 7 5 7 10 6 5 4 6 10 8 9 10 11 8 13 16 15 13 12 12 10 10 12 12 12 9 5 7 10 12 13 13 11 13 12 14 12 13 13 10 12
6 6 2 5 7 10 8 4 4 6 10 8 9 9 11 11 1 16 14 13 12 10 8 9 8 12 11 10 5 6 10 13 14 13 12 11 11 12 13 14 14 13 12 12
5 6 7 6 5 6 12 6 3 3 5 7 8 9 11 12 7 13 14 13 10 9 6 9 15 11 10 6 5 9 12 13 13 10 10 9 10 12 11 11 11 11 8 9
7 9 7 6 2 8 7 3 3 7 8 6 7 8 9 8 8 9 9 9 6 4 7 12 8 7 7 7 6 11 12 11 11 10 9 9 10 10 13 12 9 8 7 6
6 6 4 1 4 7 2 4 6 8 7 6 7 8 5 8 10 7 7 6 4 6 6 8 9 7 7 7 7 10 10 9 9 8 8 7 7 8 7 11 9 10 9 11
3 6 4 8 7 9 11 13 9 7 8 7 7 6 7 9 8 7 5 4 5 6 8 7 6 9 8 8 8 10 7 7 8 6 6 6 7 8 9 9 11 11 11 9
4 3 6 8 10 11 11 10 9 9 8 7 7 6 9 10 8 8 5 2 6 8 7 6 7 8 6 7 8 7 8 5 7 5 4 5 6 5 9 6 7 10 10 7
4 8 8 10 11 11 9 9 9 9 7 9 7 7 9 10 9 8 4 5 7 5 6 7 8 3 7 7 7 6 6 5 6 5 3 4 4 6 6 7 9 8 8 5
5 10 6 7 17 4 15 11 9 8 7 6 9 8 9 8 8 10 3 3 5 6 8 7 6 6 7 8 7 5 6 6 5 4 4 5 4 5 5 4 4 5 4 2
Wind_Direction
195 221 216 208 344 338 353 233 127 65 112 244 98 141 155 136 132 140 127 123 115 113 104 93 79 61 55 50 41 27 26 15 357 9 360 356 348 342 341 324 339 331 303 327
189 231 61 32 256 251 242 152 115 142 204 266 145 168 157 164 149 137 140 131 129 123 112 92 82 71 53 43 38 29 17 15 8 357 6 357 335 334 327 339 324 302 347 318
229 92 131 205 199 231 222 252 148 215 185 256 192 144 310 167 159 134 118 128 135 127 128 105 83 44 16 29 31 28 11 352 17 1 5 357 342 343 347 334 336 357 328 310
153 123 194 213 216 288 202 212 254 180 253 214 262 250 203 175 163 174 146 146 134 131 148 133 84 66 353 4 103 25 15 5 9 4 351 347 352 345 334 334 341 329 306 328
126 175 217 214 32 291 52 349 274 260 247 288 232 251 58 32 110 158 150 149 126 170 99 65 11 33 20 22 57 106 25 4 5 0 3 349 354 342 329 335 330 315 345 325
143 50 265 85 146 300 62 237 232 243 247 234 358 313 108 159 196 148 139 130 174 117 70 133 348 61 19 10 6 4 9 350 26 2 359 358 2 341 340 348 337 346 334 342
173 188 128 246 170 171 228 209 231 232 216 130 203 304 63 59 56 119 111 154 73 299 43 25 25 20 15 358 353 348 7 356 22 9 6 3 1 350 357 354 354 343 346 350
208 172 178 159 292 360 45 328 348 330 335 11 178 38 83 72 72 69 124 91 52 43 27 28 18 358 344 0 360 354 6 5 17 10 7 13 9 20 12 10 2 2 351 345
212 117 119 224 276 293 63 254 30 297 250 255 117 128 99 85 87 50 65 68 47 25 27 15 2 340 353 4 356 2 22 21 7 358 3 12 22 24 11 17 360 7 349 348
10 125 198 139 253 202 293 359 281 225 313 321 352 66 79 47 36 47 48 44 50 357 352 3 348 5 5 359 6 32 9 356 7 5 9 6 11 15 8 8 2 10 8 358
318 259 145 192 218 2 243 204 21 286 293 328 290 82 49 55 46 37 34 38 10 7 353 355 354 3 16 31 5 26 354 9 3 15 1 10 7 8 7 3 3 354 8 3
65 301 290 57 61 1 14 355 337 318 16 326 286 89 58 36 50 20 15 24 358 1 341 354 7 37 21 4 349 21 20 3 13 4 8 19 16 13 2 347 5 357 357 21
23 219 235 200 186 180 33 51 16 277 269 176 304 104 92 58 16 38 9 353 346 353 2 5 35 31 31 345 24 13 20 11 9 355 21 29 15 5 358 360 358 2 20 23
310 303 294 343 25 87 117 51 4 327 289 359 50 112 69 38 12 5 358 356 358 356 356 31 34 15 3 8 17 12 19 23 330 24 29 29 13 3 6 358 11 25 18 20
51 216 226 90 69 75 80 65 46 53 26 7 50 55 40 23 354 356 352 12 8 351 22 29 5 13 355 6 13 26 32 359 355 21 21 22 10 10 0 18 29 25 17 10
198 130 135 128 120 103 95 82 67 55 6 65 221 88 41 18 357 354 23 3 3 4 13 8 3 347 5 19 30 37 13 345 340 16 28 24 11 8 359 24 23 18 17 4
171 155 200 126 154 153 137 53 34 100 48 8 32 29 16 6 358 4 30 9 6 5 353 350 359 3 14 26 31 39 348 336 19 37 35 25 10 359 29 16 19 23 17 8
162 194 212 132 179 221 81 71 66 69 51 41 38 21 17 8 12 46 32 19 14 359 4 9 5 10 20 50 54 4 355 24 20 42 28 19 18 15 24 18 22 18 12 8
172 211 130 174 200 111 154 121 16 339 103 46 7 14 7 351 74 81 39 30 24 12 11 4 6 37 49 52 49 8 37 31 23 45 32 22 24 25 23 18 10 8 6 12
171 270 256 219 152 194 81 95 23 278 151 49 8 20 5 345 338 40 18 29 35 14 37 2 54 46 68 66 37 42 38 30 31 44 47 23 31 36 26 18 12 12 8 9
170 208 216 185 62 94 75 49 308 252 70 59 29 32 17 25 41 40 27 44 24 77 55 81 53 50 74 55 56 47 38 32 41 34 49 26 21 27 25 20 15 12 10 26
184 212 179 308 229 129 95 182 319 88 90 45 60 38 24 52 55 59 61 46 12 71 71 54 55 60 56 66 56 54 44 29 61 45 30 34 26 27 31 26 23 30 25 20
187 16 51 7 67 100 74 86 92 83 80 63 58 59 53 70 75 78 88 112 127 78 67 71 88 80 72 59 47 58 54 30 64 51 31 23 33 23 32 42 41 33 25 20
130 159 109 169 131 112 107 103 96 88 87 81 86 84 89 95 100 110 124 162 82 67 52 67 77 72 71 62 62 61 59 31 40 59 8 28 44 22 35 45 32 44 25 25
74 169 135 104 126 128 135 121 117 110 105 106 87 93 100 105 118 113 85 99 82 88 88 75 79 84 83 63 51 57 51 52 24 37 2 14 49 26 52 43 34 40 50 25
188 128 193 147 152 251 135 135 136 121 112 116 124 113 92 120 129 126 91 73 83 67 79 60 75 36 58 57 74 60 47 71 24 340 33 50 9 20 54 24 75 93 69 70